TimeEDT,TemperatureF,Dew PointF,Humidity,Sea Level PressureIn,VisibilityMPH,Wind Direction,Wind SpeedMPH,Gust SpeedMPH,PrecipitationIn,Events,Conditions,WindDirDegrees,DateUTC
12:51 AM,70.0,57.9,65,30.16,10.0,SSE,4.6,-,N/A,,Clear,160,2013-05-28 04:51:00
1:51 AM,70.0,59.0,68,30.16,10.0,South,6.9,-,N/A,,Clear,180,2013-05-28 05:51:00
2:51 AM,68.0,59.0,73,30.15,10.0,South,4.6,-,N/A,,Clear,180,2013-05-28 06:51:00
3:51 AM,66.9,57.9,73,30.15,10.0,South,5.8,-,N/A,,Clear,190,2013-05-28 07:51:00
4:51 AM,66.0,59.0,78,30.15,10.0,South,3.5,-,N/A,,Clear,190,2013-05-28 08:51:00
5:51 AM,64.0,59.0,84,30.17,10.0,Calm,Calm,-,N/A,,Clear,0,2013-05-28 09:51:00
6:51 AM,64.0,60.1,87,30.19,9.0,SSW,3.5,-,N/A,,Clear,210,2013-05-28 10:51:00
7:51 AM,64.0,60.1,87,30.22,8.0,Calm,Calm,-,N/A,,Clear,0,2013-05-28 11:51:00
8:51 AM,71.1,62.1,73,30.21,9.0,Variable,3.5,-,N/A,,Clear,0,2013-05-28 12:51:00
9:51 AM,73.9,61.0,64,30.22,10.0,Variable,5.8,-,N/A,,Clear,0,2013-05-28 13:51:00
10:51 AM,78.1,61.0,56,30.22,10.0,Calm,Calm,-,N/A,,Clear,0,2013-05-28 14:51:00
11:51 AM,79.0,57.9,48,30.22,10.0,Calm,Calm,-,N/A,,Clear,0,2013-05-28 15:51:00
12:51 PM,82.0,60.1,47,30.21,10.0,East,4.6,-,N/A,,Clear,100,2013-05-28 16:51:00
1:51 PM,82.9,61.0,47,30.18,10.0,Variable,5.8,-,N/A,,Clear,0,2013-05-28 17:51:00
2:51 PM,82.9,61.0,47,30.17,10.0,Calm,Calm,-,N/A,,Partly Cloudy,0,2013-05-28 18:51:00
3:51 PM,84.0,61.0,46,30.15,10.0,SE,5.8,-,N/A,,Partly Cloudy,130,2013-05-28 19:51:00
4:51 PM,84.9,61.0,44,30.13,10.0,Variable,5.8,-,N/A,,Clear,0,2013-05-28 20:51:00
5:51 PM,82.9,61.0,47,30.13,10.0,Variable,3.5,-,N/A,,Scattered Clouds,0,2013-05-28 21:51:00
6:51 PM,82.0,61.0,49,30.13,10.0,Variable,4.6,-,N/A,,Scattered Clouds,0,2013-05-28 22:51:00
7:51 PM,81.0,60.1,49,-9999,10.0,South,4.6,-,N/A,,Scattered Clouds,170,2013-05-28 23:51:00
8:51 PM,75.0,61.0,62,-9999,10.0,Calm,Calm,-,N/A,,Clear,0,2013-05-29 00:51:00
9:51 PM,72.0,62.1,71,-9999,10.0,Calm,Calm,-,N/A,,Partly Cloudy,0,2013-05-29 01:51:00
10:51 PM,73.0,61.0,66,-9999,10.0,South,6.9,-,N/A,,Clear,170,2013-05-29 02:51:00
11:51 PM,71.1,61.0,70,-9999,10.0,SSE,4.6,-,N/A,,Clear,160,2013-05-29 03:51:00